Hourly Weather Roundup
Issued by NWS Central Illinois

Home | Current Version | Previous Version | Text Only | Print | Product List | Glossary On
Versions: 1 2 3 4 5 6 7 8 9 10 11 12 13 14 15 16 17 18 19 20 21 22 23 24 25 26 27 28 29 30 31 32 33 34 35 36 37 38 39 40 41 42 43 44 45 46 47 48 49 50
000
NZUS43 KILX 271810
HWRILX

AREA WEATHER ROUNDUP
NATIONAL WEATHER SERVICE, LINCOLN IL
1200 PM CST THU NOV 27 2014


CITY           SKY/WX    TMP DP  RH WIND       PRES   REMARKS
BLOOMINGTON    LGT SNOW  26  23  88 NW10      30.38F FOG     WCI  16
6HR MIN TEMP:  23; 6HR MAX TEMP:  27; 6HR PCP: TRACE;

CHAMPAIGN      FLURRIES  28  22  78 NW15      30.38F WCI  16
6HR MIN TEMP:  23; 6HR MAX TEMP:  29; 6HR PCP: TRACE;

DECATUR        LGT SNOW  28  23  81 W10       30.41F WCI  19
6HR MIN TEMP:  24; 6HR MAX TEMP:  29; 6HR PCP: TRACE;

FLORA          SUNNY     29  24  81 NW12G18   30.44F WCI  19
6HR MIN TEMP:  23; 6HR MAX TEMP:  29;

GALESBURG      MOSUNNY   22  16  79 W13       30.43F WCI  10
JACKSONVILLE   CLOUDY    28  20  71 NW12      30.46S WCI  18
6HR MIN TEMP:  28; 6HR MAX TEMP:  30;

LACON          CLOUDY    25  19  77 W13       30.41S WCI  13
6HR MIN TEMP:  24; 6HR MAX TEMP:  26;

LAWRENCEVILLE  CLOUDY    30  23  75 NW21      30.43F WCI  17
6HR MIN TEMP:  24; 6HR MAX TEMP:  30;

LITCHFIELD     CLOUDY    27  20  75 NW10      30.44F WCI  17
$$


CITY           SKY/WX    TMP DP  RH WIND       PRES   REMARKS
LINCOLN        FLURRIES  28  23  80 W9        30.43F WCI  19
6HR MIN TEMP:  25; 6HR MAX TEMP:  30;

MACOMB         MOSUNNY   21  16  81 W17       30.48F WCI   7
MATTOON        CLOUDY    28  21  75 NW16      30.39F WCI  16
6HR MIN TEMP:  22; 6HR MAX TEMP:  29; 6HR PCP: TRACE;

MT CARMEL AP   CLOUDY    32  25  74 NW14G20   30.43F WCI  22
OLNEY-NOBLE AP CLOUDY    30  23  74 NW17G23   30.43F WCI  18
PARIS          CLOUDY    28  23  81 NW14      30.39F WCI  17
6HR MIN TEMP:  25; 6HR MAX TEMP:  28;

PEORIA         CLOUDY    26  18  71 W15       30.42F WCI  14
6HR MIN TEMP:  26; 6HR MAX TEMP:  28; 6HR PCP: TRACE;

PONTIAC        LGT SNOW  28  24  83 NW13G18   30.38F WCI  18
RANTOUL        FLURRIES  30  23  75 NW16      30.37S WCI  19
6HR MIN TEMP:  25; 6HR MAX TEMP:  31;

ROBINSON       CLOUDY    29  23  76 NW13      30.43F WCI  19
6HR MIN TEMP:  24; 6HR MAX TEMP:  30;

SPRINGFIELD    MIX PCPN  26  20  77 NW16      30.44F WCI  14
6HR MIN TEMP:  26; 6HR MAX TEMP:  28; 6HR PCP: TRACE;

TAYLORVILLE    CLOUDY    28  21  74 W14       30.43F WCI  17
$$

...REGIONAL REPORTS...


CITY           SKY/WX    TMP DP  RH WIND       PRES   REMARKS
CHICAGO O`HARE PTSUNNY   26  17  68 NW16      30.33S WCI  14
KANKAKEE       CLOUDY   N/A N/A N/A W12G23    30.36S
MOLINE         SUNNY     20  10  65 NW15      30.43F WCI   6
MOUNT VERNON   CLOUDY    30  21  69 CALM      30.46S
PITTSFIELD     PTSUNNY   27  19  71 NW13      30.48S WCI  16
QUINCY         PTSUNNY   25  16  68 NW13      30.47F WCI  14
ROCKFORD       FLURRIES  24  14  65 NW14      30.38F WCI  12
$$


CITY           SKY/WX    TMP DP  RH WIND       PRES   REMARKS
BURLINGTON     SUNNY     18  10  71 NW13G18   30.47F WCI   5
CEDAR RAPIDS   SUNNY     14   7  73 NW14      30.45F WCI  -1
DES MOINES     CLOUDY    10  -2  58 NW9       30.54F WCI  -3
KIRKSVILLE     SUNNY     25  15  66 NW12      30.49F WCI  14
OTTUMWA        SUNNY     11   2  67 NW10      30.51F WCI  -3
ST LOUIS       PTSUNNY   34  24  67 W15G21    30.47F WCI  24
$$


CITY           SKY/WX    TMP DP  RH WIND       PRES   REMARKS
TERRE HAUTE    CLOUDY    29  20  69 NW12      30.39S WCI  19
EVANSVILLE     PTSUNNY   31  22  69 W9        30.44F WCI  23
INDIANAPOLIS   CLOUDY    30  21  69 W15       30.31F WCI  19
LAFAYETTE      CLOUDY    27  21  78 W13G23    30.34S WCI  16
MADISON        PTSUNNY   20  11  68 NW9       30.37F WCI   9
MILWAUKEE      CLOUDY    23  14  68 NW8       30.33S WCI  14
$$




USA.gov is the U.S. government's official web portal to all federal, state and local government web resources and services.